EDT,Max TemperatureF,Mean TemperatureF,Min TemperatureF,Max Dew PointF,MeanDew PointF,Min DewpointF,Max Humidity, Mean Humidity, Min Humidity, Max Sea Level PressureIn, Mean Sea Level PressureIn, Min Sea Level PressureIn, Max VisibilityMiles, Mean VisibilityMiles, Min VisibilityMiles, Max Wind SpeedMPH, Mean Wind SpeedMPH, Max Gust SpeedMPH,PrecipitationIn, CloudCover, Events, WindDirDegrees
2013-6-1,73,65,57,66,60,55,100,92,73,29.76,29.68,29.64,10,8,0,15,6,23,0.00,7,Fog-Rain,180
2013-6-2,55,45,35,55,40,34,100,86,66,30.01,29.83,29.66,10,7,1,18,11,30,0.00,6,Rain,301
2013-6-3,55,44,33,37,33,27,100,64,38,30.12,30.04,30.00,10,10,10,18,8,26,0.00,0,,291
2013-6-4,66,48,30,39,32,28,93,54,26,30.23,30.19,30.13,10,10,10,9,3,17,0.00,0,,299
2013-6-5,57,52,46,48,45,39,93,77,62,30.23,30.19,30.14,10,10,10,10,3,,0.00,6,,99
2013-6-6,68,58,48,46,41,30,93,63,26,30.14,30.07,30.02,10,9,1,15,5,22,0.00,5,Rain,46
2013-6-7,73,60,48,43,37,27,76,48,18,30.03,29.98,29.92,10,10,4,12,4,,0.00,1,,353
2013-6-8,73,56,39,46,41,36,93,58,27,30.08,29.99,29.94,10,10,7,12,2,,0.00,0,,259
2013-6-9,75,60,44,50,46,39,93,59,29,30.15,30.09,30.03,10,10,10,15,4,21,0.00,1,,131
2013-6-10,75,65,55,61,55,46,94,72,57,30.03,29.91,29.84,10,10,7,14,9,17,0.00,5,Rain,107
2013-6-11,71,64,55,64,60,54,94,87,73,29.90,29.86,29.83,10,10,5,9,3,,0.00,6,Rain,172
2013-6-12,77,62,46,61,51,45,100,69,34,29.92,29.87,29.81,10,7,0,12,2,,0.00,4,Fog,244
2013-6-13,64,56,48,55,50,43,94,79,63,30.08,29.93,29.79,10,10,10,16,8,25,0.00,3,,328
2013-6-14,73,58,42,43,37,30,87,53,22,30.18,30.11,30.05,10,10,10,9,5,,0.00,0,,348
2013-6-15,71,58,44,57,47,39,100,69,37,30.05,29.96,29.83,10,9,3,14,4,22,0.00,3,Rain,186
2013-6-16,78,66,53,63,54,46,100,73,32,29.86,29.79,29.74,10,7,0,22,7,29,0.00,4,Fog-Rain,270
2013-6-17,66,55,42,52,47,39,100,78,56,30.06,29.96,29.86,10,10,10,12,5,17,0.00,5,,345
2013-6-18,68,54,41,45,38,34,93,58,28,30.16,30.12,30.06,10,10,10,12,5,21,0.00,0,,360
2013-6-19,71,54,37,48,41,36,93,58,29,30.19,30.14,30.09,10,10,10,18,5,24,0.00,0,,197
2013-6-20,75,64,53,55,51,45,77,66,50,30.17,30.13,30.10,10,10,7,15,8,20,0.00,4,Rain,196
2013-6-21,66,62,59,63,58,52,100,86,72,30.20,30.07,29.94,10,8,0,22,4,24,0.00,7,Rain,116
2013-6-22,68,62,55,64,61,55,100,94,88,30.10,30.04,29.96,10,5,0,12,5,16,0.00,7,Fog,333
2013-6-23,75,68,60,68,63,61,100,91,73,30.03,29.94,29.86,10,5,0,17,7,29,0.00,5,Fog-Rain,170
2013-6-24,80,68,57,70,65,55,100,85,65,29.96,29.90,29.85,10,9,2,16,9,20,0.00,1,,206
2013-6-25,82,71,60,70,64,59,100,83,54,29.86,29.83,29.81,10,9,2,13,6,,0.00,2,Rain,193
2013-6-26,84,72,59,70,63,57,100,75,42,29.85,29.81,29.76,10,8,0,12,5,9,0.00,2,Fog,207
2013-6-27,75,68,62,66,63,61,100,89,73,29.80,29.74,29.69,10,10,4,8,4,,0.00,4,Rain,209
2013-6-28,75,67,59,64,62,57,100,89,69,29.70,29.66,29.62,10,7,0,12,4,18,0.00,6,Fog-Rain,3
2013-6-29,73,64,55,59,55,48,100,75,53,29.86,29.75,29.69,10,10,10,13,6,20,0.00,3,Rain,338
2013-6-30,75,64,53,48,44,39,77,51,27,30.10,29.99,29.87,10,10,10,16,7,23,0.00,0,,347